Weather History for Yuma MCAS, AZ

Change the Weather History Date:

Sunday, February 2, 2014

  Actual Average Record
Temperature  
Mean Temperature 51 °F 60 °F  
Max Temperature 64 °F 72 °F 86 °F (1954)
Min Temperature 38 °F 49 °F 30 °F (1894)
Degree Days  
Heating Degree Days 14 5  
Month to date heating degree days 20 10  
Since 1 July heating degree days 327 518  
Cooling Degree Days 0 1  
Month to date cooling degree days 0 1  
Year to date cooling degree days 16 7  
Growing Degree Days 2 (Base 50)    
Moisture  
Dew Point 16 °F    
Average Humidity 29    
Maximum Humidity 44    
Minimum Humidity 13    
Precipitation  
Precipitation 0.00 in 0.01 in 0.16 in (1889)
Month to date precipitation 0.00 0.02  
Year to date precipitation T 0.39  
Sea Level Pressure  
Sea Level Pressure 30.03 in    
Wind  
Wind Speed 3 mph (SSW)    
Max Wind Speed 8 mph    
Max Gust Speed 12 mph    
Visibility 10 miles    
Events      
T = Trace of Precipitation, MM = Missing Value Source: NWS Daily Summary

Daily Weather History Graph

Daily Weather History Graph

Search for Another Location

Airport:

Trip Planner

Search our weather history database for the weather conditions in past years. The results will help you decide how hot, cold, wet, or windy it might be!

Date:

Astronomy

Feb. 02, 2014 Rise Set
Actual Time 7:32 AM MST 6:12 PM MST
Civil Twilight 7:06 AM MST 6:38 PM MST
Nautical Twilight 6:37 AM MST 7:07 PM MST
Astronomical Twilight 6:08 AM MST 7:36 PM MST
Moon 9:14 AM MST (2/2) 9:45 PM MST (2/2)
Length of Visible Light 11h 31m
Length of Day
10h 40m
Waxing Crescent, 12% of the Moon is Illuminated
Feb 2
Waxing Crescent
Feb 6
First Quarter
Feb 14
Full
Feb 22
Last Quarter
Mar 1
New

Hourly Weather History & Observations

Time (MST) Temp. Windchill Dew Point Humidity Pressure Visibility Wind Dir Wind Speed Gust Speed Precip Events Conditions
12:57 AM 48.0 °F - 15.1 °F 27% 30.04 in 10.0 mi SW 3.5 mph - N/A   Clear
1:57 AM 44.1 °F 41.5 °F 19.0 °F 37% 30.04 in 10.0 mi SSW 4.6 mph - N/A   Clear
2:57 AM 44.1 °F 40.8 °F 19.0 °F 37% 30.05 in 10.0 mi SSE 5.8 mph - N/A   Clear
3:57 AM 43.0 °F - 17.1 °F 35% 30.05 in 10.0 mi Calm Calm - N/A   Clear
4:57 AM 42.1 °F - 18.0 °F 38% 30.04 in 10.0 mi Calm Calm - N/A   Clear
5:57 AM 42.1 °F - 18.0 °F 38% 30.06 in 10.0 mi Calm Calm - N/A   Clear
6:57 AM 39.0 °F 35.7 °F 19.0 °F 45% 30.07 in 10.0 mi SSE 4.6 mph - N/A   Clear
7:57 AM 39.0 °F 36.8 °F 18.0 °F 43% 30.09 in 10.0 mi South 3.5 mph - N/A   Clear
8:57 AM 44.1 °F - 18.0 °F 35% 30.11 in - Calm Calm - N/A   Clear
9:57 AM 52.0 °F - 14.0 °F 22% 30.12 in - Calm Calm - N/A   Clear
10:57 AM 55.9 °F - 12.0 °F 18% 30.11 in 10.0 mi East 5.8 mph - N/A   Clear
11:57 AM 59.0 °F - 14.0 °F 17% 30.09 in 10.0 mi North 4.6 mph - N/A   Clear
12:57 PM 61.0 °F - 14.0 °F 16% 30.06 in 10.0 mi Calm Calm - N/A   Clear
1:57 PM 63.0 °F - 14.0 °F 15% 30.03 in 10.0 mi SW 5.8 mph - N/A   Unknown
2:57 PM 63.0 °F - 14.0 °F 15% 30.01 in 10.0 mi West 5.8 mph - N/A   Clear
3:57 PM 64.0 °F - 12.9 °F 14% 29.99 in 10.0 mi SW 3.5 mph - N/A   Clear
4:57 PM 63.0 °F - 15.1 °F 16% 29.98 in 10.0 mi West 4.6 mph - N/A   Clear
5:57 PM 62.1 °F - 12.9 °F 15% 29.97 in 10.0 mi South 5.8 mph - N/A   Clear
6:57 PM 60.1 °F - 16.0 °F 18% 29.98 in 10.0 mi SSW 3.5 mph - N/A   Clear
7:57 PM 59.0 °F - 14.0 °F 17% 29.97 in 10.0 mi Calm Calm - N/A   Clear
8:57 PM 55.9 °F - 19.0 °F 24% 29.96 in 10.0 mi SSE 3.5 mph - N/A   Clear
9:57 PM 55.0 °F - 21.0 °F 27% 29.96 in 10.0 mi SSE 5.8 mph - N/A   Clear
10:57 PM 54.0 °F - 18.0 °F 24% 29.96 in 10.0 mi Calm Calm - N/A   Clear
11:57 PM 53.1 °F - 18.0 °F 25% 29.94 in 10.0 mi Calm Calm - N/A   Clear